,,PressureMeas_1m,,PRMeasQMR101_1,,RHStat155_1m_1,,SRMeasQMS101R_1m,,TAStat155_1m_1,,GenWind_1,,GenWind_1,
2019-09-08, 00:00:07,VALID,919.741,VALID,0.0,VALID,99.325,VALID,0.021,VALID,20.769,INVALID,360.0,VALID,0.0,
2019-09-08, 00:01:07,VALID,919.759,VALID,0.0,VALID,99.295,VALID,0.015,VALID,20.759,INVALID,360.0,VALID,0.0,
2019-09-08, 00:02:07,VALID,919.771,VALID,0.0,VALID,99.31,VALID,0.012,VALID,20.772,INVALID,360.0,VALID,0.0,
2019-09-08, 00:03:07,VALID,919.775,VALID,0.0,VALID,99.304,VALID,0.016,VALID,20.771,INVALID,360.0,VALID,0.0,
2019-09-08, 00:04:07,VALID,919.777,VALID,0.0,VALID,99.267,VALID,0.003,VALID,20.752,INVALID,360.0,VALID,0.0,
2019-09-08, 00:05:07,VALID,919.773,VALID,0.0,VALID,99.237,VALID,0.028,VALID,20.751,INVALID,360.0,VALID,0.0,
2019-09-08, 00:06:07,VALID,919.772,VALID,0.0,VALID,99.24,VALID,0.033,VALID,20.763,INVALID,360.0,VALID,0.0,
2019-09-08, 00:07:07,VALID,919.774,VALID,0.0,VALID,99.218,VALID,0.032,VALID,20.758,INVALID,360.0,VALID,0.0,
2019-09-08, 00:08:07,VALID,919.756,VALID,0.0,VALID,99.229,VALID,0.037,VALID,20.748,INVALID,360.0,VALID,0.0,
2019-09-08, 00:09:07,VALID,919.741,VALID,0.0,VALID,99.298,VALID,0.02,VALID,20.753,INVALID,360.0,VALID,0.0,
2019-09-08, 00:10:07,VALID,919.733,VALID,0.0,VALID,99.345,VALID,0.016,VALID,20.773,INVALID,360.0,VALID,0.0,
2019-09-08, 00:11:07,VALID,919.721,VALID,0.0,VALID,99.342,VALID,0.021,VALID,20.764,INVALID,360.0,VALID,0.0,
2019-09-08, 00:12:07,VALID,919.71,VALID,0.0,VALID,99.337,VALID,0.027,VALID,20.738,INVALID,360.0,VALID,0.0,
2019-09-08, 00:13:07,VALID,919.699,VALID,0.0,VALID,99.346,VALID,0.012,VALID,20.715,INVALID,360.0,VALID,0.0,
2019-09-08, 00:14:07,VALID,919.717,VALID,0.0,VALID,99.342,VALID,-0.0,VALID,20.705,INVALID,360.0,VALID,0.0,
2019-09-08, 00:15:06,VALID,919.686,VALID,0.0,VALID,99.37,VALID,0.02,VALID,20.694,INVALID,360.0,VALID,0.0,
2019-09-08, 00:16:06,VALID,919.697,VALID,0.0,VALID,99.402,VALID,0.015,VALID,20.711,INVALID,360.0,VALID,0.0,
2019-09-08, 00:17:06,VALID,919.688,VALID,0.0,VALID,99.423,VALID,0.025,VALID,20.721,INVALID,360.0,VALID,0.0,
2019-09-08, 00:18:06,VALID,919.674,VALID,0.0,VALID,99.427,VALID,0.027,VALID,20.718,INVALID,360.0,VALID,0.0,
2019-09-08, 00:19:06,VALID,919.668,VALID,0.0,VALID,99.395,VALID,0.023,VALID,20.698,INVALID,360.0,VALID,0.0,
2019-09-08, 00:20:06,VALID,919.667,VALID,0.0,VALID,99.425,VALID,0.005,VALID,20.724,INVALID,360.0,VALID,0.0,
2019-09-08, 00:21:06,VALID,919.684,VALID,0.0,VALID,99.412,VALID,0.004,VALID,20.751,INVALID,360.0,VALID,0.0,
2019-09-08, 00:22:06,VALID,919.664,VALID,0.0,VALID,99.451,VALID,0.01,VALID,20.779,INVALID,360.0,VALID,0.0,
2019-09-08, 00:23:06,VALID,919.673,VALID,0.0,VALID,99.421,VALID,-0.005,VALID,20.765,INVALID,360.0,VALID,0.0,
2019-09-08, 00:24:06,VALID,919.676,VALID,0.0,VALID,99.381,VALID,-0.006,VALID,20.745,INVALID,360.0,VALID,0.0,
2019-09-08, 00:25:06,VALID,919.653,VALID,0.0,VALID,99.44,VALID,0.021,VALID,20.783,INVALID,360.0,VALID,0.0,
2019-09-08, 00:26:06,VALID,919.647,VALID,0.0,VALID,99.433,VALID,0.004,VALID,20.776,INVALID,360.0,VALID,0.0,
2019-09-08, 00:27:06,VALID,919.623,VALID,0.0,VALID,99.399,VALID,0.008,VALID,20.75,INVALID,360.0,VALID,0.0,
2019-09-08, 00:28:06,VALID,919.628,VALID,0.0,VALID,99.381,VALID,0.003,VALID,20.736,INVALID,360.0,VALID,0.0,
2019-09-08, 00:29:06,VALID,919.613,VALID,0.0,VALID,99.371,VALID,0.01,VALID,20.73,INVALID,360.0,VALID,0.0,
2019-09-08, 00:30:06,VALID,919.602,VALID,0.0,VALID,99.382,VALID,-0.011,VALID,20.736,INVALID,360.0,VALID,0.0,
2019-09-08, 00:31:06,VALID,919.574,VALID,0.0,VALID,99.409,VALID,-0.014,VALID,20.75,INVALID,360.0,VALID,0.0,
2019-09-08, 00:32:06,VALID,919.542,VALID,0.0,VALID,99.402,VALID,-0.013,VALID,20.748,INVALID,360.0,VALID,0.0,
2019-09-08, 00:33:06,VALID,919.538,VALID,0.0,VALID,99.382,VALID,-0.011,VALID,20.729,INVALID,360.0,VALID,0.0,
2019-09-08, 00:34:06,VALID,919.531,VALID,0.0,VALID,99.376,VALID,-0.007,VALID,20.721,INVALID,360.0,VALID,0.0,
2019-09-08, 00:35:06,VALID,919.515,VALID,0.0,VALID,99.379,VALID,0.015,VALID,20.715,INVALID,360.0,VALID,0.0,
2019-09-08, 00:36:06,VALID,919.492,VALID,0.0,VALID,99.357,VALID,0.001,VALID,20.7,INVALID,360.0,VALID,0.0,
2019-09-08, 00:37:06,VALID,919.477,VALID,0.0,VALID,99.381,VALID,0.014,VALID,20.696,INVALID,360.0,VALID,0.0,
2019-09-08, 00:38:06,VALID,919.449,VALID,0.0,VALID,99.39,VALID,0.03,VALID,20.704,INVALID,360.0,VALID,0.0,
2019-09-08, 00:39:06,VALID,919.423,VALID,0.0,VALID,99.411,VALID,0.021,VALID,20.696,INVALID,360.0,VALID,0.0,
2019-09-08, 00:40:06,VALID,919.413,VALID,0.0,VALID,99.408,VALID,0.002,VALID,20.699,INVALID,360.0,VALID,0.0,
2019-09-08, 00:41:06,VALID,919.388,VALID,0.0,VALID,99.418,VALID,-0.005,VALID,20.697,INVALID,360.0,VALID,0.0,
2019-09-08, 00:42:06,VALID,919.365,VALID,0.0,VALID,99.42,VALID,0.002,VALID,20.698,INVALID,360.0,VALID,0.0,
2019-09-08, 00:43:06,VALID,919.338,VALID,0.0,VALID,99.423,VALID,0.013,VALID,20.688,INVALID,360.0,VALID,0.0,
2019-09-08, 00:44:06,VALID,919.31,VALID,0.0,VALID,99.413,VALID,0.008,VALID,20.675,INVALID,360.0,VALID,0.0,
2019-09-08, 00:45:06,VALID,919.292,VALID,0.0,VALID,99.443,VALID,0.02,VALID,20.684,INVALID,360.0,VALID,0.0,
2019-09-08, 00:46:06,VALID,919.289,VALID,0.0,VALID,99.459,VALID,0.017,VALID,20.686,INVALID,360.0,VALID,0.0,
2019-09-08, 00:47:06,VALID,919.265,VALID,0.0,VALID,99.429,VALID,0.028,VALID,20.677,INVALID,360.0,VALID,0.0,
2019-09-08, 00:48:06,VALID,919.251,VALID,0.0,VALID,99.439,VALID,0.025,VALID,20.673,INVALID,360.0,VALID,0.0,
2019-09-08, 00:49:06,VALID,919.244,VALID,0.0,VALID,99.456,VALID,0.014,VALID,20.67,INVALID,360.0,VALID,0.0,
2019-09-08, 00:50:06,VALID,919.237,VALID,0.0,VALID,99.461,VALID,0.004,VALID,20.675,INVALID,360.0,VALID,0.0,
2019-09-08, 00:51:06,VALID,919.207,VALID,0.0,VALID,99.489,VALID,0.012,VALID,20.688,INVALID,360.0,VALID,0.0,
2019-09-08, 00:52:06,VALID,919.185,VALID,0.0,VALID,99.518,VALID,0.013,VALID,20.709,INVALID,360.0,VALID,0.0,
2019-09-08, 00:53:06,VALID,919.169,VALID,0.0,VALID,99.506,VALID,0.004,VALID,20.72,INVALID,360.0,VALID,0.0,
2019-09-08, 00:54:06,VALID,919.165,VALID,0.0,VALID,99.511,VALID,0.014,VALID,20.707,INVALID,360.0,VALID,0.0,
2019-09-08, 00:55:06,VALID,919.147,VALID,0.0,VALID,99.511,VALID,0.031,VALID,20.693,VALID,51.0,VALID,0.0,
2019-09-08, 00:56:06,VALID,919.137,VALID,0.0,VALID,99.506,VALID,0.01,VALID,20.681,VALID,52.0,VALID,0.0,
2019-09-08, 00:57:06,VALID,919.133,VALID,0.0,VALID,99.508,VALID,0.008,VALID,20.678,VALID,52.0,VALID,0.0,
2019-09-08, 00:58:06,VALID,919.131,VALID,0.0,VALID,99.533,VALID,0.012,VALID,20.704,INVALID,360.0,VALID,0.0,
2019-09-08, 00:59:06,VALID,919.097,VALID,0.0,VALID,99.532,VALID,0.011,VALID,20.718,INVALID,360.0,VALID,0.0,
2019-09-08, 01:00:06,VALID,919.099,VALID,0.0,VALID,99.556,VALID,0.025,VALID,20.72,INVALID,360.0,VALID,0.0,
2019-09-08, 01:01:06,VALID,919.088,VALID,0.0,VALID,99.562,VALID,0.005,VALID,20.723,INVALID,360.0,VALID,0.0,
2019-09-08, 01:02:06,VALID,919.063,VALID,0.0,VALID,99.551,VALID,0.016,VALID,20.717,INVALID,360.0,VALID,0.0,
2019-09-08, 01:03:06,VALID,919.039,VALID,0.0,VALID,99.553,VALID,0.007,VALID,20.714,INVALID,360.0,VALID,0.0,
2019-09-08, 01:04:06,VALID,919.018,VALID,0.0,VALID,99.585,VALID,0.019,VALID,20.73,INVALID,360.0,VALID,0.0,
2019-09-08, 01:05:06,VALID,919.013,VALID,0.0,VALID,99.594,VALID,-0.04,VALID,20.721,INVALID,360.0,VALID,0.0,
2019-09-08, 01:06:06,VALID,918.986,VALID,0.0,VALID,99.587,VALID,-0.034,VALID,20.705,INVALID,360.0,VALID,0.0,
2019-09-08, 01:07:06,VALID,918.954,VALID,0.0,VALID,99.57,VALID,-0.035,VALID,20.695,INVALID,360.0,VALID,0.0,
2019-09-08, 01:08:06,VALID,918.94,VALID,0.0,VALID,99.596,VALID,-0.034,VALID,20.697,INVALID,360.0,VALID,0.0,
2019-09-08, 01:09:06,VALID,918.942,VALID,0.0,VALID,99.598,VALID,-0.042,VALID,20.701,INVALID,360.0,VALID,0.0,
2019-09-08, 01:10:06,VALID,918.927,VALID,0.0,VALID,99.597,VALID,-0.061,VALID,20.697,INVALID,360.0,VALID,0.0,
2019-09-08, 01:11:06,VALID,918.912,VALID,0.0,VALID,99.621,VALID,-0.044,VALID,20.709,INVALID,360.0,VALID,0.0,
2019-09-08, 01:12:06,VALID,918.937,VALID,0.0,VALID,99.636,VALID,-0.049,VALID,20.726,INVALID,360.0,VALID,0.0,
2019-09-08, 01:13:06,VALID,918.944,VALID,0.0,VALID,99.646,VALID,-0.042,VALID,20.758,INVALID,360.0,VALID,0.0,
2019-09-08, 01:14:06,VALID,918.932,VALID,0.0,VALID,99.636,VALID,-0.063,VALID,20.747,INVALID,360.0,VALID,0.0,
2019-09-08, 01:15:06,VALID,918.919,VALID,0.0,VALID,99.638,VALID,-0.06,VALID,20.73,INVALID,360.0,VALID,0.0,
2019-09-08, 01:16:06,VALID,918.938,VALID,0.0,VALID,99.612,VALID,-0.043,VALID,20.726,INVALID,360.0,VALID,0.0,
2019-09-08, 01:17:06,VALID,918.919,VALID,0.0,VALID,99.641,VALID,-0.055,VALID,20.735,INVALID,360.0,VALID,0.0,
2019-09-08, 01:18:06,VALID,918.909,VALID,0.0,VALID,99.637,VALID,-0.037,VALID,20.753,INVALID,360.0,VALID,0.0,
2019-09-08, 01:19:06,VALID,918.904,VALID,0.0,VALID,99.638,VALID,-0.04,VALID,20.749,INVALID,360.0,VALID,0.0,
2019-09-08, 01:20:06,VALID,918.889,VALID,0.0,VALID,99.628,VALID,0.025,VALID,20.709,INVALID,360.0,VALID,0.0,
2019-09-08, 01:21:06,VALID,918.878,VALID,0.0,VALID,99.621,VALID,-0.005,VALID,20.719,INVALID,360.0,VALID,0.0,
2019-09-08, 01:22:06,VALID,918.887,VALID,0.0,VALID,99.651,VALID,0.003,VALID,20.723,INVALID,360.0,VALID,0.0,
2019-09-08, 01:23:06,VALID,918.874,VALID,0.0,VALID,99.639,VALID,-0.009,VALID,20.728,INVALID,360.0,VALID,0.0,
2019-09-08, 01:24:06,VALID,918.882,VALID,0.0,VALID,99.646,VALID,-0.012,VALID,20.737,INVALID,360.0,VALID,0.0,
2019-09-08, 01:25:06,VALID,918.883,VALID,0.0,VALID,99.658,VALID,0.011,VALID,20.749,INVALID,360.0,VALID,0.0,
2019-09-08, 01:26:06,VALID,918.898,VALID,0.0,VALID,99.669,VALID,-0.001,VALID,20.764,INVALID,360.0,VALID,0.0,
2019-09-08, 01:27:06,VALID,918.891,VALID,0.0,VALID,99.668,VALID,-0.005,VALID,20.747,INVALID,360.0,VALID,0.0,
2019-09-08, 01:28:06,VALID,918.899,VALID,0.0,VALID,99.642,VALID,-0.008,VALID,20.741,INVALID,360.0,VALID,0.0,
2019-09-08, 01:29:06,VALID,918.904,VALID,0.0,VALID,99.647,VALID,-0.009,VALID,20.755,INVALID,360.0,VALID,0.0,
2019-09-08, 01:30:06,VALID,918.876,VALID,0.0,VALID,99.675,VALID,-0.009,VALID,20.773,INVALID,360.0,VALID,0.0,
2019-09-08, 01:31:06,VALID,918.847,VALID,0.0,VALID,99.694,VALID,-0.012,VALID,20.793,INVALID,360.0,VALID,0.0,
2019-09-08, 01:32:06,VALID,918.811,VALID,0.0,VALID,99.681,VALID,-0.012,VALID,20.817,INVALID,360.0,VALID,0.0,
2019-09-08, 01:33:06,VALID,918.797,VALID,0.0,VALID,99.703,VALID,0.008,VALID,20.832,INVALID,360.0,VALID,0.0,
2019-09-08, 01:34:06,VALID,918.759,VALID,0.0,VALID,99.682,VALID,0.003,VALID,20.821,INVALID,360.0,VALID,0.0,
2019-09-08, 01:35:06,VALID,918.749,VALID,0.0,VALID,99.672,VALID,0.02,VALID,20.798,INVALID,360.0,VALID,0.0,
2019-09-08, 01:36:06,VALID,918.748,VALID,0.0,VALID,99.659,VALID,0.032,VALID,20.784,INVALID,360.0,VALID,0.0,
2019-09-08, 01:37:06,VALID,918.754,VALID,0.0,VALID,99.649,VALID,0.017,VALID,20.762,INVALID,360.0,VALID,0.0,
2019-09-08, 01:38:06,VALID,918.737,VALID,0.0,VALID,99.666,VALID,0.02,VALID,20.782,INVALID,360.0,VALID,0.0,
2019-09-08, 01:39:06,VALID,918.748,VALID,0.0,VALID,99.651,VALID,0.019,VALID,20.773,INVALID,360.0,VALID,0.0,
2019-09-08, 01:40:06,VALID,918.761,VALID,0.0,VALID,99.657,VALID,0.018,VALID,20.746,INVALID,360.0,VALID,0.0,
2019-09-08, 01:41:06,VALID,918.745,VALID,0.0,VALID,99.644,VALID,0.03,VALID,20.742,INVALID,360.0,VALID,0.0,
2019-09-08, 01:42:06,VALID,918.755,VALID,0.0,VALID,99.647,VALID,0.038,VALID,20.782,INVALID,360.0,VALID,0.0,
2019-09-08, 01:43:06,VALID,918.754,VALID,0.0,VALID,99.662,VALID,0.009,VALID,20.822,INVALID,360.0,VALID,0.0,
2019-09-08, 01:44:06,VALID,918.734,VALID,0.0,VALID,99.654,VALID,0.012,VALID,20.818,INVALID,360.0,VALID,0.0,
2019-09-08, 01:45:06,VALID,918.719,VALID,0.0,VALID,99.637,VALID,0.028,VALID,20.801,INVALID,360.0,VALID,0.0,
2019-09-08, 01:46:06,VALID,918.706,VALID,0.0,VALID,99.61,VALID,0.041,VALID,20.761,INVALID,360.0,VALID,0.0,
2019-09-08, 01:47:06,VALID,918.683,VALID,0.0,VALID,99.619,VALID,0.045,VALID,20.732,INVALID,360.0,VALID,0.0,
2019-09-08, 01:48:06,VALID,918.652,VALID,0.0,VALID,99.598,VALID,0.026,VALID,20.719,INVALID,360.0,VALID,0.0,
2019-09-08, 01:49:06,VALID,918.629,VALID,0.0,VALID,99.578,VALID,0.032,VALID,20.704,INVALID,360.0,VALID,0.0,
2019-09-08, 01:50:06,VALID,918.632,VALID,0.0,VALID,99.576,VALID,-0.002,VALID,20.703,INVALID,360.0,VALID,0.0,
2019-09-08, 01:51:06,VALID,918.603,VALID,0.0,VALID,99.583,VALID,-0.02,VALID,20.686,INVALID,360.0,VALID,0.0,
2019-09-08, 01:52:06,VALID,918.6,VALID,0.0,VALID,99.626,VALID,-0.006,VALID,20.737,INVALID,360.0,VALID,0.0,
2019-09-08, 01:53:06,VALID,918.619,VALID,0.0,VALID,99.636,VALID,-0.009,VALID,20.788,INVALID,360.0,VALID,0.0,
2019-09-08, 01:54:06,VALID,918.611,VALID,0.0,VALID,99.641,VALID,0.008,VALID,20.812,INVALID,360.0,VALID,0.0,
2019-09-08, 01:55:06,VALID,918.62,VALID,0.0,VALID,99.647,VALID,0.013,VALID,20.795,INVALID,360.0,VALID,0.0,
2019-09-08, 01:56:06,VALID,918.616,VALID,0.0,VALID,99.632,VALID,0.01,VALID,20.755,INVALID,360.0,VALID,0.0,
2019-09-08, 01:57:06,VALID,918.625,VALID,0.0,VALID,99.603,VALID,-0.005,VALID,20.713,INVALID,360.0,VALID,0.0,
2019-09-08, 01:58:06,VALID,918.61,VALID,0.0,VALID,99.581,VALID,-0.015,VALID,20.697,INVALID,360.0,VALID,0.0,
2019-09-08, 01:59:06,VALID,918.595,VALID,0.0,VALID,99.576,VALID,-0.008,VALID,20.689,INVALID,360.0,VALID,0.0,
2019-09-08, 02:00:06,VALID,918.585,VALID,0.0,VALID,99.582,VALID,0.005,VALID,20.669,INVALID,360.0,VALID,0.0,
2019-09-08, 02:01:06,VALID,918.557,VALID,0.0,VALID,99.579,VALID,0.01,VALID,20.655,INVALID,360.0,VALID,0.0,
2019-09-08, 02:02:06,VALID,918.557,VALID,0.0,VALID,99.577,VALID,0.011,VALID,20.664,INVALID,360.0,VALID,0.0,
2019-09-08, 02:03:06,VALID,918.56,VALID,0.0,VALID,99.616,VALID,0.006,VALID,20.706,INVALID,360.0,VALID,0.0,
2019-09-08, 02:04:06,VALID,918.549,VALID,0.0,VALID,99.612,VALID,0.007,VALID,20.724,INVALID,360.0,VALID,0.0,
2019-09-08, 02:05:06,VALID,918.553,VALID,0.0,VALID,99.591,VALID,-0.013,VALID,20.732,INVALID,360.0,VALID,0.0,
2019-09-08, 02:06:06,VALID,918.559,VALID,0.0,VALID,99.575,VALID,-0.02,VALID,20.732,INVALID,360.0,VALID,0.0,
2019-09-08, 02:07:06,VALID,918.571,VALID,0.0,VALID,99.592,VALID,-0.001,VALID,20.734,INVALID,360.0,VALID,0.0,
2019-09-08, 02:08:06,VALID,918.558,VALID,0.0,VALID,99.562,VALID,-0.006,VALID,20.734,INVALID,360.0,VALID,0.0,
2019-09-08, 02:09:06,VALID,918.577,VALID,0.0,VALID,99.571,VALID,-0.0,VALID,20.718,INVALID,360.0,VALID,0.0,
2019-09-08, 02:10:06,VALID,918.595,VALID,0.0,VALID,99.553,VALID,-0.013,VALID,20.711,VALID,51.0,VALID,0.0,
2019-09-08, 02:11:06,VALID,918.602,VALID,0.0,VALID,99.524,VALID,-0.023,VALID,20.698,INVALID,360.0,VALID,0.0,
2019-09-08, 02:12:06,VALID,918.615,VALID,0.0,VALID,99.526,VALID,-0.021,VALID,20.7,INVALID,360.0,VALID,0.0,
2019-09-08, 02:13:06,VALID,918.657,VALID,0.0,VALID,99.536,VALID,-0.028,VALID,20.736,INVALID,360.0,VALID,0.0,
2019-09-08, 02:14:06,VALID,918.642,VALID,0.0,VALID,99.563,VALID,-0.008,VALID,20.775,INVALID,360.0,VALID,0.0,
2019-09-08, 02:15:06,VALID,918.636,VALID,0.0,VALID,99.564,VALID,-0.004,VALID,20.803,INVALID,360.0,VALID,0.0,
2019-09-08, 02:16:06,VALID,918.646,VALID,0.0,VALID,99.544,VALID,-0.011,VALID,20.783,INVALID,360.0,VALID,0.0,
2019-09-08, 02:17:06,VALID,918.646,VALID,0.0,VALID,99.518,VALID,-0.015,VALID,20.73,INVALID,360.0,VALID,0.0,
2019-09-08, 02:18:06,VALID,918.639,VALID,0.0,VALID,99.523,VALID,-0.019,VALID,20.741,INVALID,360.0,VALID,0.0,
2019-09-08, 02:19:06,VALID,918.622,VALID,0.0,VALID,99.507,VALID,-0.004,VALID,20.719,INVALID,360.0,VALID,0.0,
2019-09-08, 02:20:06,VALID,918.607,VALID,0.0,VALID,99.42,VALID,-0.003,VALID,20.639,INVALID,360.0,VALID,0.0,
2019-09-08, 02:21:06,VALID,918.613,VALID,0.0,VALID,99.325,VALID,-0.014,VALID,20.667,INVALID,360.0,VALID,0.0,
2019-09-08, 02:22:06,VALID,918.625,VALID,0.0,VALID,99.271,VALID,-0.005,VALID,20.704,INVALID,360.0,VALID,0.0,
2019-09-08, 02:23:06,VALID,918.63,VALID,0.0,VALID,99.191,VALID,-0.017,VALID,20.762,INVALID,360.0,VALID,0.0,
2019-09-08, 02:24:06,VALID,918.637,VALID,0.0,VALID,99.175,VALID,-0.006,VALID,20.826,INVALID,360.0,VALID,0.0,
2019-09-08, 02:25:06,VALID,918.641,VALID,0.0,VALID,99.153,VALID,-0.01,VALID,20.854,INVALID,360.0,VALID,0.0,
2019-09-08, 02:26:06,VALID,918.64,VALID,0.0,VALID,99.149,VALID,-0.005,VALID,20.87,VALID,359.0,VALID,0.0,
2019-09-08, 02:27:06,VALID,918.634,VALID,0.0,VALID,99.166,VALID,0.003,VALID,20.858,VALID,360.0,VALID,0.0,
2019-09-08, 02:28:06,VALID,918.631,VALID,0.0,VALID,99.17,VALID,0.003,VALID,20.839,VALID,360.0,VALID,0.0,
2019-09-08, 02:29:06,VALID,918.637,VALID,0.0,VALID,99.222,VALID,-0.002,VALID,20.85,VALID,360.0,VALID,0.0,
2019-09-08, 02:30:06,VALID,918.638,VALID,0.0,VALID,99.234,VALID,-0.018,VALID,20.831,VALID,360.0,VALID,0.0,
2019-09-08, 02:31:06,VALID,918.646,VALID,0.0,VALID,99.246,VALID,-0.017,VALID,20.829,VALID,360.0,VALID,0.0,
2019-09-08, 02:32:06,VALID,918.661,VALID,0.0,VALID,99.252,VALID,-0.032,VALID,20.837,VALID,360.0,VALID,0.0,
2019-09-08, 02:33:06,VALID,918.632,VALID,0.0,VALID,99.258,VALID,-0.015,VALID,20.83,VALID,360.0,VALID,0.0,
2019-09-08, 02:34:06,VALID,918.643,VALID,0.0,VALID,99.266,VALID,-0.015,VALID,20.846,VALID,360.0,VALID,0.0,
2019-09-08, 02:35:06,VALID,918.648,VALID,0.0,VALID,99.299,VALID,-0.014,VALID,20.87,INVALID,360.0,VALID,0.0,
2019-09-08, 02:36:06,VALID,918.619,VALID,0.0,VALID,99.328,VALID,-0.018,VALID,20.895,INVALID,360.0,VALID,0.0,
2019-09-08, 02:37:06,VALID,918.599,VALID,0.0,VALID,99.312,VALID,-0.009,VALID,20.862,INVALID,360.0,VALID,0.0,
2019-09-08, 02:38:06,VALID,918.595,VALID,0.0,VALID,99.32,VALID,-0.018,VALID,20.866,INVALID,360.0,VALID,0.0,
2019-09-08, 02:39:06,VALID,918.598,VALID,0.0,VALID,99.341,VALID,-0.009,VALID,20.869,INVALID,360.0,VALID,0.0,
2019-09-08, 02:40:06,VALID,918.576,VALID,0.0,VALID,99.307,VALID,0.0,VALID,20.828,INVALID,360.0,VALID,0.0,
2019-09-08, 02:41:06,VALID,918.543,VALID,0.0,VALID,99.247,VALID,-0.022,VALID,20.799,INVALID,360.0,VALID,0.0,
2019-09-08, 02:42:06,VALID,918.541,VALID,0.0,VALID,99.214,VALID,-0.011,VALID,20.796,INVALID,360.0,VALID,0.0,
2019-09-08, 02:43:06,VALID,918.531,VALID,0.0,VALID,99.239,VALID,-0.017,VALID,20.816,INVALID,360.0,VALID,0.0,
2019-09-08, 02:44:06,VALID,918.53,VALID,0.0,VALID,99.255,VALID,-0.008,VALID,20.84,INVALID,360.0,VALID,0.0,
2019-09-08, 02:45:06,VALID,918.494,VALID,0.0,VALID,99.24,VALID,0.003,VALID,20.861,INVALID,360.0,VALID,0.0,
2019-09-08, 02:46:06,VALID,918.488,VALID,0.0,VALID,99.262,VALID,-0.01,VALID,20.884,INVALID,360.0,VALID,0.0,
2019-09-08, 02:47:06,VALID,918.48,VALID,0.0,VALID,99.24,VALID,-0.004,VALID,20.864,INVALID,360.0,VALID,0.0,
2019-09-08, 02:48:06,VALID,918.483,VALID,0.0,VALID,99.192,VALID,-0.002,VALID,20.81,INVALID,360.0,VALID,0.0,
2019-09-08, 02:49:06,VALID,918.479,VALID,0.0,VALID,99.196,VALID,0.0,VALID,20.802,INVALID,360.0,VALID,0.0,
2019-09-08, 02:50:06,VALID,918.486,VALID,0.0,VALID,99.217,VALID,-0.009,VALID,20.778,INVALID,360.0,VALID,0.0,
2019-09-08, 02:51:06,VALID,918.5,VALID,0.0,VALID,99.272,VALID,-0.005,VALID,20.796,INVALID,360.0,VALID,0.0,
2019-09-08, 02:52:06,VALID,918.482,VALID,0.0,VALID,99.296,VALID,-0.007,VALID,20.808,INVALID,360.0,VALID,0.0,
2019-09-08, 02:53:06,VALID,918.483,VALID,0.0,VALID,99.324,VALID,0.007,VALID,20.795,INVALID,360.0,VALID,0.0,
2019-09-08, 02:54:06,VALID,918.465,VALID,0.0,VALID,99.352,VALID,-0.016,VALID,20.791,INVALID,360.0,VALID,0.0,
2019-09-08, 02:55:06,VALID,918.443,VALID,0.0,VALID,99.378,VALID,-0.026,VALID,20.811,INVALID,360.0,VALID,0.0,
2019-09-08, 02:56:06,VALID,918.432,VALID,0.0,VALID,99.364,VALID,-0.01,VALID,20.783,INVALID,360.0,VALID,0.0,
2019-09-08, 02:57:06,VALID,918.411,VALID,0.0,VALID,99.338,VALID,-0.011,VALID,20.743,INVALID,360.0,VALID,0.0,
2019-09-08, 02:58:06,VALID,918.411,VALID,0.0,VALID,99.323,VALID,-0.021,VALID,20.741,INVALID,360.0,VALID,0.0,
2019-09-08, 02:59:06,VALID,918.414,VALID,0.0,VALID,99.356,VALID,-0.041,VALID,20.765,INVALID,360.0,VALID,0.0,
2019-09-08, 03:00:06,VALID,918.437,VALID,0.0,VALID,99.385,VALID,-0.007,VALID,20.806,INVALID,360.0,VALID,0.0,
2019-09-08, 03:01:06,VALID,918.448,VALID,0.0,VALID,99.444,VALID,-0.009,VALID,20.854,INVALID,360.0,VALID,0.0,
2019-09-08, 03:02:06,VALID,918.457,VALID,0.0,VALID,99.447,VALID,-0.015,VALID,20.851,INVALID,360.0,VALID,0.0,
2019-09-08, 03:03:06,VALID,918.471,VALID,0.0,VALID,99.421,VALID,-0.013,VALID,20.835,INVALID,360.0,VALID,0.0,
2019-09-08, 03:04:06,VALID,918.471,VALID,0.0,VALID,99.444,VALID,-0.013,VALID,20.86,INVALID,360.0,VALID,0.0,
2019-09-08, 03:05:06,VALID,918.428,VALID,0.0,VALID,99.451,VALID,-0.014,VALID,20.859,INVALID,360.0,VALID,0.0,
2019-09-08, 03:06:06,VALID,918.417,VALID,0.0,VALID,99.437,VALID,-0.005,VALID,20.836,INVALID,360.0,VALID,0.0,
2019-09-08, 03:07:06,VALID,918.399,VALID,0.0,VALID,99.422,VALID,-0.004,VALID,20.799,INVALID,360.0,VALID,0.0,
2019-09-08, 03:08:06,VALID,918.371,VALID,0.0,VALID,99.401,VALID,-0.014,VALID,20.784,INVALID,360.0,VALID,0.0,
2019-09-08, 03:09:06,VALID,918.362,VALID,0.0,VALID,99.353,VALID,-0.026,VALID,20.751,INVALID,360.0,VALID,0.0,
2019-09-08, 03:10:06,VALID,918.34,VALID,0.0,VALID,99.313,VALID,-0.022,VALID,20.729,VALID,51.0,VALID,0.0,
2019-09-08, 03:11:06,VALID,918.353,VALID,0.0,VALID,99.304,VALID,-0.02,VALID,20.727,INVALID,360.0,VALID,0.0,
2019-09-08, 03:12:06,VALID,918.327,VALID,0.0,VALID,99.317,VALID,-0.03,VALID,20.742,INVALID,360.0,VALID,0.0,
2019-09-08, 03:13:06,VALID,918.329,VALID,0.0,VALID,99.337,VALID,-0.018,VALID,20.758,INVALID,360.0,VALID,0.0,
2019-09-08, 03:14:06,VALID,918.33,VALID,0.0,VALID,99.345,VALID,-0.015,VALID,20.773,INVALID,360.0,VALID,0.0,
2019-09-08, 03:15:06,VALID,918.321,VALID,0.0,VALID,99.326,VALID,-0.029,VALID,20.779,INVALID,360.0,VALID,0.0,
2019-09-08, 03:16:06,VALID,918.334,VALID,0.0,VALID,99.35,VALID,-0.044,VALID,20.785,INVALID,360.0,VALID,0.0,
2019-09-08, 03:17:06,VALID,918.316,VALID,0.0,VALID,99.375,VALID,-0.023,VALID,20.787,VALID,50.0,VALID,0.0,
2019-09-08, 03:18:06,VALID,918.299,VALID,0.0,VALID,99.36,VALID,-0.011,VALID,20.756,VALID,50.0,VALID,0.0,
2019-09-08, 03:19:06,VALID,918.301,VALID,0.0,VALID,99.368,VALID,-0.035,VALID,20.744,INVALID,360.0,VALID,0.0,
2019-09-08, 03:20:06,VALID,918.299,VALID,0.0,VALID,99.398,VALID,0.022,VALID,20.739,INVALID,360.0,VALID,0.0,
2019-09-08, 03:21:06,VALID,918.288,VALID,0.0,VALID,99.429,VALID,0.015,VALID,20.747,INVALID,360.0,VALID,0.0,
2019-09-08, 03:22:06,VALID,918.259,VALID,0.0,VALID,99.479,VALID,0.026,VALID,20.744,INVALID,360.0,VALID,0.0,
2019-09-08, 03:23:06,VALID,918.256,VALID,0.0,VALID,99.469,VALID,0.009,VALID,20.723,INVALID,360.0,VALID,0.0,
2019-09-08, 03:24:06,VALID,918.269,VALID,0.0,VALID,99.479,VALID,0.002,VALID,20.716,INVALID,360.0,VALID,0.0,
2019-09-08, 03:25:06,VALID,918.254,VALID,0.0,VALID,99.475,VALID,0.025,VALID,20.7,INVALID,360.0,VALID,0.0,
2019-09-08, 03:26:06,VALID,918.244,VALID,0.0,VALID,99.507,VALID,0.012,VALID,20.691,INVALID,360.0,VALID,0.0,
2019-09-08, 03:27:06,VALID,918.229,VALID,0.0,VALID,99.499,VALID,0.01,VALID,20.691,INVALID,360.0,VALID,0.0,
2019-09-08, 03:28:06,VALID,918.213,VALID,0.0,VALID,99.545,VALID,0.014,VALID,20.72,INVALID,360.0,VALID,0.0,
2019-09-08, 03:29:06,VALID,918.23,VALID,0.0,VALID,99.568,VALID,0.018,VALID,20.734,INVALID,360.0,VALID,0.0,
2019-09-08, 03:30:06,VALID,918.221,VALID,0.0,VALID,99.553,VALID,0.015,VALID,20.722,INVALID,360.0,VALID,0.0,
2019-09-08, 03:31:06,VALID,918.222,VALID,0.0,VALID,99.57,VALID,0.015,VALID,20.722,INVALID,360.0,VALID,0.0,
2019-09-08, 03:32:06,VALID,918.234,VALID,0.0,VALID,99.581,VALID,0.008,VALID,20.743,INVALID,360.0,VALID,0.0,
2019-09-08, 03:33:06,VALID,918.23,VALID,0.0,VALID,99.602,VALID,0.026,VALID,20.745,INVALID,360.0,VALID,0.0,
2019-09-08, 03:34:06,VALID,918.231,VALID,0.0,VALID,99.586,VALID,0.021,VALID,20.723,INVALID,360.0,VALID,0.0,
2019-09-08, 03:35:06,VALID,918.209,VALID,0.0,VALID,99.592,VALID,0.002,VALID,20.711,INVALID,360.0,VALID,0.0,
2019-09-08, 03:36:06,VALID,918.194,VALID,0.0,VALID,99.576,VALID,-0.005,VALID,20.689,INVALID,360.0,VALID,0.0,
2019-09-08, 03:37:06,VALID,918.168,VALID,0.0,VALID,99.603,VALID,-0.01,VALID,20.692,INVALID,360.0,VALID,0.0,
2019-09-08, 03:38:06,VALID,918.172,VALID,0.0,VALID,99.57,VALID,-0.009,VALID,20.641,INVALID,360.0,VALID,0.0,